Hlavní strana
METAR-TAF:

METAR-TAF

Letiště :

Greenville, Jižní Karolína, Spojené státy americké

zeměpisná šířka: 34-45-30N, zeměpisná délka: 082-22-35W, výška: 291 m

Aktuální stav počasí

Zpráva byla vytvořena před 21 minutami, v 09:15 UTC
Jihozápadní vítr 3 kt
Teplota 20°C
Vlhkost vzduchu 88%
Tlak 1017 hPa
Viditelnost: 16.1 km
Jasno

METAR: KGYH 190915Z AUTO 22003KT 10SM CLR 20/18 A3003 RMK AO2

Čas: 05:36 (09:36 UTC)


TAF: chybějící

Stav a předpovědi počasí z více než 4 000 letišť (zprávy METAR a TAF).

Červené a žluté tečky na mapě představují dostupné meteorologické stanice.

Když kurzor umístíte na tečku, zobrazí se název stanice.

Pak kliknutím zobrazíte stav a předpověď počasí.

Chcete-li změnit mapu, kliknutím na zelené tlačítko se znaménkem +mapu přiblížíte, kliknutím na zelené tlačítko se znaménkem – mapu oddálíte a kliknutím na zelené šipky přejdete na sousední mapy.


METAR-TAF: